Location: *
(39.6167°S, 171.5333°W)
Time: 06:15:38
(UTC+00:00)

PAYLOAD B - Pass Details

Date: 13 May 2021
Orbit: 849 x 871 km, 99.1° (Epoch: 16 June)

Event Time Altitude Azimuth Distance (km) Brightness Sun altitude
Rises 17:18:59 0° 3° (N) 3,441 7.6 -12.4°
Reaches altitude 10° 17:21:24 10° 358° (N) 2,514 6.8 -11.9°
Maximum altitude 17:26:53 54° 281° (W) 1,055 4.4 -10.9°
Drops below altitude 10° 17:32:26 10° 203° (SSW) 2,551 6.3 -9.9°
Sets 17:34:55 0° 198° (SSW) 3,496 7.1 -9.4°
